Home   Weather   Varese   Past weeks

Flag for Italy Past Weather in Varese, Italy — Yesterday and Last 2 Weeks

Now
58 °F

Cool.


Feels Like: 58 °F
Forecast: 52 / 66 °F
Wind: 1 mph from Southwest

Location: Stabio

Current Time: Sep 29, 2016 at 10:27:26 PM

Latest Report: Sep 29, 2016 at 9:00 PM


Visibility: N/A

Pressure: 30.23 "Hg

Humidity: 96%

Dew Point: 56 °F

Location of VareseLocation

Past Weather in Varese — Graph

°F

Varese Temperature Yesterday

Maximum temperature yesterday: 73 °F (at 4:00 PM)
Minimum temperature yesterday: 51 °F (at 7:00 AM)
Average temperature yesterday: 60 °F

High & Low Weather Summary for the Past Weeks

 TemperatureHumidityPressure
High77 °F (Sep 19, 3:00 PM)100% (Sep 17, 3:00 AM)30.42 "Hg (Sep 17, 3:00 AM)
Low50 °F (Sep 25, 6:00 AM)29% (Sep 19, 3:00 PM)29.80 "Hg (Sep 19, 3:00 PM)
Average61 °F84%30.09 "Hg
* Reported Sep 14 9:00 PM — Sep 29 9:00 PM, Varese, Weather by CustomWeather, © 2016

Note: Actual official high and low records may vary slightly from our data, if they occured in-between our weather recording intervals... More about our weather records

Advertising

Varese Weather History for the Previous 24 Hours

Scroll right to see more
 ConditionsComfort  
Time TempWeatherWind HumidityBarometerVisibility
9:00 PM
Thu, Sep 29
58 °FCool.1 mph96%30.23 "HgN/A
8:00 PM59 °FCool.1 mph94%30.23 "HgN/A
7:00 PM61 °FCool.1 mph83%30.22 "HgN/A
6:00 PM67 °FMild.1 mph80%30.21 "HgN/A
5:00 PM71 °FMild.2 mph61%30.22 "HgN/A
4:00 PM72 °FMild.5 mph56%30.23 "HgN/A
3:00 PM73 °FMild.3 mph61%30.24 "HgN/A
2:00 PM73 °FMild.5 mph62%30.26 "HgN/A
1:00 PM71 °FMild.2 mph62%30.29 "HgN/A
12:00 PM69 °FMild.2 mph71%30.31 "HgN/A
11:00 AM67 °FMild.3 mph74%30.33 "HgN/A
10:00 AM63 °FMild.1 mph88%30.35 "HgN/A
9:00 AM59 °FCool.No wind98%30.37 "HgN/A
8:00 AM56 °FCool.1 mph98%30.37 "HgN/A
7:00 AM56 °FCool.1 mph97%30.38 "HgN/A
6:00 AM54 °FCool.2 mph96%30.39 "HgN/A
5:00 AM53 °FCool.No wind97%30.39 "HgN/A
4:00 AM53 °FCool.No wind97%30.40 "HgN/A
3:00 AM53 °FCool.2 mph93%30.41 "HgN/A
2:00 AM53 °FCool.1 mph97%30.42 "HgN/A
1:00 AM54 °FCool.1 mph97%30.41 "HgN/A
12:00 AM55 °FCool.1 mph97%30.40 "HgN/A
11:00 PM
Wed, Sep 28
56 °FCool.1 mph95%30.40 "HgN/A
10:00 PM57 °FCool.1 mph96%30.39 "HgN/A
Weather by CustomWeather, © 2016

See weather overviewHow to use our weather pages